[[[{"header":{"parameterUnit":"kt","parameterCategory":2,"dx":1,"dy":1,"la1":30.253999710083008,"la2":30.299108505249023,"lo1":-89.0895004272461,"lo2":-89.04439544677734,"nx":28,"ny":28,"refTime":"2022-10-12T21:00:00:Z","depth":0,"parameterNumber":1,"parameterNumberName":"U-component_of_WINDS"},"data":[2.5586,2.5715,2.5729,2.5883,2.5922,2.603,2.6074,2.6131,2.6181,2.6314,2.6392,2.6421,2.6478,2.6577,2.6665,2.6676,2.6712,2.6746,2.6754,2.6585,2.6563,2.6541,2.651,2.6754,2.6755,2.6926,2.6928,2.6929,2.5456,2.5494,2.5581,2.5674,2.5748,2.5721,2.5794,2.5858,2.5957,2.602,2.6099,2.6218,2.6315,2.6362,2.6458,2.652,2.6514,2.6545,2.654,2.655,2.6369,2.6336,2.6547,2.6547,2.6547,2.6547,2.6547,2.6547,2.5223,2.5301,2.5364,2.5459,2.551,2.5572,2.5649,2.5682,2.5768,2.5869,2.5871,2.5984,2.6052,2.6177,2.6223,2.6312,2.6282,2.6321,2.633,2.634,2.6347,2.6093,2.633,2.6329,2.6329,2.6328,2.6328,0,2.5056,2.5062,2.5147,2.5235,2.5305,2.5375,2.5443,2.5492,2.5512,2.5583,2.5687,2.575,2.5875,2.5976,2.607,2.6111,2.6094,2.6095,2.6122,2.6122,2.6108,2.6115,2.5819,2.6089,2.6087,2.6085,2.6084,2.6084,2.4821,2.4912,2.4986,2.5044,2.5084,2.5178,2.5237,2.5248,2.531,2.5397,2.5467,2.5567,2.5649,2.5816,2.5857,2.5952,2.5945,2.6046,2.596,2.5954,2.5946,2.594,2.5948,2.6062,2.6065,2.6067,2.6069,0,2.4688,2.471,2.4855,2.4922,2.4941,2.5036,2.5093,2.5173,2.5197,2.5311,2.5339,2.5379,2.5482,2.5508,2.5633,2.5643,2.58,2.5792,2.5775,2.5775,2.5866,2.5857,2.6163,2.6203,2.5951,2.5954,2.5956,0,2.4496,2.4615,2.4642,2.4725,2.4857,2.4866,2.4997,2.5031,2.509,2.518,2.5164,2.5249,2.5268,2.5357,2.5373,2.5506,2.5531,2.5546,2.5549,2.5548,2.5545,2.5582,2.557,2.5553,2.5552,2.555,2.5549,0,2.4284,2.4439,2.4574,2.4613,2.4697,2.4761,2.48,2.4866,2.4925,2.5006,2.5044,2.5139,2.5191,2.5264,2.5283,2.5224,2.5447,2.537,2.5463,2.5463,2.5513,2.5509,2.5773,2.5547,2.5547,2.5546,2.5545,0,2.4133,2.4212,2.4405,2.4474,2.4515,2.4605,2.4696,2.478,2.4851,2.4866,2.4931,2.4924,2.5043,2.4963,2.5128,2.5044,2.5097,2.5123,2.513,2.5143,2.5053,2.5198,2.5447,2.5473,2.5153,2.515,2.5147,0,2.3883,2.4084,2.4092,2.4277,2.4373,2.4346,2.4447,2.4511,2.4539,2.4626,2.4658,2.4759,2.4705,2.474,2.4818,2.4856,2.4965,2.4843,2.497,2.4975,2.495,2.5179,2.521,2.5389,2.5106,2.511,2.5113,0,2.3692,2.3792,2.3825,2.387,2.3955,2.4037,2.4153,2.4253,2.431,2.4386,2.4484,2.4627,2.4592,2.4651,2.4657,2.4737,2.4892,2.4689,2.4691,2.4724,2.5088,2.5115,2.5145,2.4878,2.4883,2.4887,2.508,0,2.3456,2.3561,2.365,2.3751,2.3818,2.3936,2.3961,2.4028,2.4025,2.4052,2.4198,2.4261,2.4367,2.4409,2.4408,2.4584,2.4559,2.4521,2.4447,2.4597,2.4662,2.4688,2.4348,2.4346,2.4344,2.4343,0,0,2.3211,2.3361,2.3368,2.348,2.3537,2.3509,2.3632,2.3685,2.3794,2.3835,2.3792,2.4004,2.4058,2.4233,2.4282,2.4326,2.436,2.4308,2.4525,2.4546,2.4565,2.4633,2.466,2.434,2.4339,2.4339,2.4338,0,2.313,2.3181,2.3302,2.3356,2.3437,2.3459,2.3489,2.3565,2.3588,2.3732,2.3709,2.3801,2.3972,2.4031,2.4083,2.4286,2.4265,2.4317,2.4416,2.4507,2.453,2.455,2.4621,2.4647,2.4334,2.4334,2.4334,0,2.2946,2.3,2.3061,2.3189,2.3243,2.3344,2.327,2.3382,2.3458,2.3426,2.3569,2.3608,2.3691,2.3854,2.3928,2.3893,2.4177,2.4094,2.4105,2.4115,2.4205,2.4232,2.4256,2.3939,2.3937,2.3936,0,0,2.2873,2.297,2.3033,2.3174,2.3209,2.3245,2.3303,2.3305,2.3378,2.3408,2.3458,2.3531,2.363,2.3696,2.3791,2.3966,2.3984,2.4044,2.4062,2.4078,2.4095,2.4189,2.4216,2.393,2.393,2.393,0,0,2.2839,2.2916,2.2899,2.3065,2.3134,2.3208,2.3293,2.3276,2.3363,2.3353,2.3366,2.3387,2.354,2.3581,2.3501,2.3765,2.369,2.371,2.3733,2.3757,2.3775,2.3762,2.3437,0,0,0,0,0,2.2769,2.2906,2.289,2.2921,2.3085,2.3216,2.3237,2.3249,2.3195,2.3262,2.3301,2.3275,2.3539,2.3469,2.3502,2.3591,2.3857,2.387,2.3882,2.3952,2.3977,2.3998,0,0,0,0,0,0,2.2781,2.282,2.2886,2.2965,2.3002,2.3211,2.3121,2.3129,2.3188,2.318,2.3268,2.3278,2.3293,2.3453,2.3483,2.3567,2.3427,2.3862,2.3873,2.3883,2.3961,2.3981,2.3999,0,0,0,0,0,2.2791,2.2822,2.3082,2.2963,2.2996,2.3044,2.3116,2.3122,2.3168,2.323,2.3238,2.3172,2.3295,2.3321,2.3471,2.3554,2.3407,2.3417,2.3869,2.3878,2.3885,2.3971,0,0,0,0,0,0,2.2799,2.2829,2.3089,2.3099,2.2912,2.3033,2.3052,2.3116,2.3214,2.3224,2.3133,2.3126,2.3298,2.3318,2.3338,2.3548,2.339,2.3401,2.3408,2.3876,2.3882,2.3888,0,0,0,0,0,0,2.2813,2.2838,2.3094,2.3029,2.3032,2.3022,2.3039,2.317,2.3215,2.3112,2.3109,2.3129,2.327,2.3316,2.3332,2.3535,2.3378,2.3388,2.3395,2.34,2.3881,2.3887,0,0,0,0,0,0,2.2824,2.2846,2.3026,2.3029,2.3031,2.3148,2.3138,2.3306,2.3156,2.3108,2.3143,2.3137,2.3269,2.3285,2.3328,2.3524,2.3532,2.3378,2.3385,2.339,2.3394,0,0,0,0,0,0,0,2.2833,2.2682,2.3027,2.3028,2.303,2.3194,2.3197,2.32,2.3155,2.315,2.3145,2.314,2.3317,2.3329,2.334,2.3516,0,0,2.3377,2.3382,0,0,0,0,0,0,0,0,2.2673,2.268,2.3027,2.3029,2.3032,2.3195,2.3197,2.3199,2.3154,2.315,2.3146,2.3142,2.332,2.333,2.3339,0,0,0,0,0,0,0,0,0,0,0,0,0,0,0,2.3028,2.3029,0,2.3195,2.3197,2.3199,2.3153,2.315,2.3147,2.3143,2.3323,2.333,2.3338,0,0,0,0,0,0,0,0,0,0,0,0,0,0,0,0,0,0,0,0,0,0,0,0,0,0,0,0,0,0,0,0,0,0,0,0,0,0,0,0,0,0,0,0,0,0,0,0,0,0,0,0,0,0,0,0,0,0,0,0,0,0,0,0,0,0,0,0,0]}],[{"header":{"parameterUnit":"kt","parameterCategory":2,"dx":1,"dy":1,"la1":30.253999710083008,"la2":30.299108505249023,"lo1":-89.0895004272461,"lo2":-89.04439544677734,"nx":28,"ny":28,"refTime":"2022-10-12T21:00:00:Z","depth":0,"parameterNumber":2,"parameterNumberName":"V-component_of_WINDS"},"data":[2.3221,2.3318,2.3324,2.3437,2.3461,2.3539,2.3569,2.3608,2.3641,2.3735,2.379,2.3807,2.3843,2.391,2.397,2.3977,2.4,2.4026,2.4029,2.3904,2.3887,2.3871,2.3846,2.4032,2.4032,2.4155,2.4156,2.4157,2.3116,2.3141,2.3205,2.327,2.3323,2.3299,2.335,2.3396,2.3468,2.3511,2.3568,2.3652,2.372,2.3749,2.3815,2.3859,2.3852,2.3876,2.3871,2.3876,2.3744,2.3718,2.388,2.388,2.388,2.388,2.388,2.388,2.2926,2.2986,2.303,2.3099,2.3135,2.3179,2.3237,2.3258,2.3321,2.3393,2.3392,2.3474,2.352,2.3607,2.3639,2.3702,2.3678,2.3707,2.3713,2.3719,2.3722,2.3532,2.3715,2.3715,2.3715,2.3714,2.3714,0,2.2788,2.2789,2.2854,2.2918,2.297,2.3022,2.3072,2.3108,2.3118,2.3171,2.3247,2.3293,2.3384,2.3456,2.3523,2.3552,2.3534,2.3537,2.3555,2.3554,2.354,2.3542,2.332,2.3531,2.353,2.3529,2.3528,2.3527,2.2592,2.2665,2.2718,2.2761,2.2791,2.2863,2.2907,2.2912,2.2958,2.3021,2.3075,2.3149,2.3209,2.3333,2.336,2.3429,2.3421,2.3499,2.3431,2.3425,2.3415,2.3409,2.3413,2.3511,2.3513,2.3515,2.3516,0,2.248,2.2494,2.261,2.2658,2.2671,2.2747,2.2787,2.2849,2.2866,2.2953,2.2974,2.3,2.3077,2.3093,2.3187,2.3192,2.3309,2.3303,2.329,2.3288,2.3355,2.3347,2.3583,2.3612,2.3425,2.3427,2.3428,0,2.2317,2.2414,2.2428,2.2496,2.2601,2.2604,2.2709,2.2734,2.2777,2.2846,2.2831,2.2896,2.2908,2.2975,2.2984,2.3084,2.3104,2.3112,2.3113,2.3112,2.311,2.3136,2.3125,2.312,2.3118,2.3117,2.3116,0,2.2136,2.2262,2.2371,2.2402,2.2466,2.2517,2.2546,2.2596,2.2642,2.2704,2.2733,2.2807,2.2846,2.2902,2.2912,2.2865,2.3038,2.2976,2.3046,2.3046,2.3083,2.308,2.3287,2.3115,2.3114,2.3114,2.3114,0,2.2006,2.2069,2.2229,2.2279,2.2312,2.2387,2.2457,2.2525,2.258,2.259,2.2641,2.2633,2.2728,2.2662,2.279,2.2724,2.2763,2.2782,2.2788,2.2795,2.2721,2.283,2.303,2.3048,2.2802,2.2799,2.2797,0,2.1791,2.1958,2.1963,2.2116,2.2194,2.2169,2.2252,2.2303,2.2324,2.2393,2.2417,2.2499,2.2455,2.2483,2.2545,2.2573,2.2658,2.2562,2.2658,2.2661,2.2637,2.2822,2.2846,2.2984,2.2764,2.2768,2.277,0,2.1627,2.1707,2.1735,2.1769,2.1839,2.1908,2.2005,2.2086,2.2131,2.2195,2.2273,2.2393,2.2361,2.2411,2.2415,2.2478,2.26,2.2438,2.244,2.2462,2.2752,2.2772,2.2796,2.2588,2.2592,2.2595,2.2744,0,2.1416,2.1506,2.1583,2.1667,2.1723,2.1824,2.1843,2.1899,2.1895,2.1916,2.2037,2.209,2.2177,2.2212,2.2212,2.2354,2.2332,2.2302,2.2239,2.2362,2.2411,2.2432,2.2163,2.2161,2.216,2.2159,0,0,2.1204,2.1333,2.134,2.1435,2.1482,2.1458,2.1563,2.1608,2.1701,2.1733,2.1698,2.1875,2.1921,2.2065,2.2105,2.2144,2.2169,2.2129,2.2305,2.2321,2.2336,2.2388,2.2409,2.2156,2.2156,2.2155,2.2155,0,2.113,2.1177,2.1282,2.1328,2.1397,2.1416,2.1441,2.1506,2.1526,2.1648,2.1627,2.1703,2.185,2.1897,2.1941,2.2111,2.2092,2.2138,2.2218,2.229,2.2308,2.2324,2.2379,2.2399,2.2151,2.2152,2.2152,0,2.0968,2.1015,2.107,2.1182,2.1229,2.1315,2.1252,2.135,2.1413,2.1387,2.1508,2.1542,2.1611,2.1749,2.1812,2.1782,2.2019,2.1953,2.1962,2.1969,2.2039,2.2061,2.208,2.1825,2.1823,2.1822,0,0,2.0902,2.0988,2.1043,2.1169,2.1199,2.123,2.1281,2.1283,2.1346,2.1371,2.1414,2.1477,2.156,2.1616,2.1697,2.1847,2.1859,2.1911,2.1927,2.1939,2.1953,2.2026,2.2048,2.1818,2.1817,2.1817,0,0,2.0872,2.0939,2.0925,2.1074,2.1133,2.1197,2.1273,2.1257,2.1333,2.1324,2.1336,2.1353,2.1483,2.1519,2.1452,2.1674,2.1613,2.1629,2.1647,2.1667,2.1682,2.1669,2.1398,0,0,0,0,0,2.0808,2.093,2.0916,2.0945,2.1091,2.1204,2.1223,2.1234,2.1187,2.1246,2.1279,2.1258,2.1483,2.1424,2.1453,2.1527,2.1756,2.1767,2.1777,2.1835,2.1855,2.1873,0,0,0,0,0,0,2.0819,2.0853,2.0913,2.0983,2.1016,2.12,2.1123,2.1129,2.1181,2.1175,2.1252,2.126,2.1273,2.1411,2.1436,2.1507,2.139,2.1761,2.177,2.1778,2.1842,2.1859,2.1873,0,0,0,0,0,2.0828,2.0856,2.1087,2.0981,2.101,2.1053,2.1118,2.1123,2.1164,2.1218,2.1225,2.1168,2.1275,2.1297,2.1426,2.1495,2.1372,2.1381,2.1767,2.1774,2.178,2.185,0,0,0,0,0,0,2.0834,2.0861,2.1093,2.1102,2.0936,2.1043,2.106,2.1118,2.1204,2.1212,2.1134,2.1128,2.1278,2.1295,2.1312,2.1489,2.1358,2.1367,2.1373,2.1772,2.1778,2.1783,0,0,0,0,0,0,2.0846,2.0869,2.1098,2.1041,2.1044,2.1034,2.1049,2.1162,2.1205,2.1115,2.1112,2.113,2.1252,2.1293,2.1307,2.1483,2.1347,2.1356,2.1362,2.1366,2.1777,2.1781,0,0,0,0,0,0,2.0856,2.0876,2.1039,2.1041,2.1043,2.1146,2.1134,2.1284,2.1154,2.1111,2.1143,2.1138,2.1252,2.1266,2.1303,2.1474,2.1481,2.1347,2.1353,2.1358,2.1361,0,0,0,0,0,0,0,2.0864,2.073,2.1039,2.1041,2.1043,2.1187,2.1189,2.1192,2.1153,2.1149,2.1144,2.114,2.1294,2.1304,2.1314,2.1467,0,0,2.1346,2.1351,0,0,0,0,0,0,0,0,2.0722,2.0728,2.1039,2.1041,2.1043,2.1187,2.1189,2.1191,2.1152,2.1149,2.1145,2.1142,2.1297,2.1305,2.1313,0,0,0,0,0,0,0,0,0,0,0,0,0,0,0,2.104,2.1041,0,2.1187,2.1189,2.1191,2.1152,2.1149,2.1146,2.1143,2.1299,2.1306,2.1313,0,0,0,0,0,0,0,0,0,0,0,0,0,0,0,0,0,0,0,0,0,0,0,0,0,0,0,0,0,0,0,0,0,0,0,0,0,0,0,0,0,0,0,0,0,0,0,0,0,0,0,0,0,0,0,0,0,0,0,0,0,0,0,0,0,0,0,0,0]}]]]